Eau Claire, WI

10:57 PM CDT on May 22, 2017 (GMT -0500)
Chippewa Valley Regional

Weather History for KEAU - April, 2013

Change the Weather History Date:

Friday, April 19, 2013

  Actual Average Record
Temperature  
Mean Temperature 30 °F 48 °F  
Max Temperature 36 °F 60 °F 89 °F (1985)
Min Temperature 24 °F 36 °F 18 °F (1897)
Degree Days  
Heating Degree Days 35 17  
Month to date heating degree days 607 413  
Since 1 July heating degree days 7735 7477  
Cooling Degree Days 0 0  
Month to date cooling degree days 0 0  
Year to date cooling degree days 0 0  
Moisture  
Dew Point 25 °F    
Average Humidity 78    
Maximum Humidity 92    
Minimum Humidity 63    
Precipitation  
Precipitation 0.00 in 0.10 in 1.23 in (1931)
Month to date precipitation 4.13 1.62  
Year to date precipitation 9.52 5.05  
Snow  
Snow 0.00 in T in 2.90 in (1924)
Month to date snowfall 7.4 1.5  
Since 1 July snowfall 73.6 46.4  
Snow Depth 1.00 in    
Sea Level Pressure  
Sea Level Pressure 29.55 in    
Wind  
Wind Speed 14 mph (NW)    
Max Wind Speed 26 mph    
Max Gust Speed 35 mph    
Visibility 6 miles    
Events Snow    
T = Trace of Precipitation, MM = Missing Value Source: NWS Daily Summary

Daily Weather History Graph

Daily Weather History Graph

Search for Another Location

Airport or City:

Trip Planner

Search our weather history database for the weather conditions in past years. The results will help you decide how hot, cold, wet, or windy it might be!

Date:

Astronomy

Apr. 19, 2013 Rise Set
Actual Time 6:14 AM CDT 7:56 PM CDT
Civil Twilight 5:43 AM CDT 8:27 PM CDT
Nautical Twilight 5:05 AM CDT 9:05 PM CDT
Astronomical Twilight 4:24 AM CDT 9:46 PM CDT
Moon 1:26 PM CDT (4/19) 2:46 AM CDT (4/19)
Length of Visible Light 14h 44m
Length of Day
13h 42m
First Quarter, 62% of the Moon is Illuminated
Apr 19
First Quarter
Apr 25
Full
May 2
Last Quarter
May 9
New
May 17
First Quarter

Hourly Weather History & Observations

Time (CDT) Temp. Windchill Dew Point Humidity Pressure Visibility Wind Dir Wind Speed Gust Speed Precip Events Conditions
12:47 AM 32.0 °F 22.1 °F 28.4 °F 87% 29.31 in 10.0 mi NW 13.8 mph 21.9 mph N/A   Overcast
12:56 AM 32.0 °F 22.1 °F 28.9 °F 88% 29.33 in 8.0 mi NW 13.8 mph 23.0 mph N/A   Overcast
1:53 AM 32.0 °F 22.5 °F 28.4 °F 87% 29.29 in 8.0 mi NW 12.7 mph - N/A   Overcast
1:56 AM 32.0 °F 20.8 °F 28.9 °F 88% 29.32 in 8.0 mi NW 17.3 mph - N/A   Overcast
2:46 AM 30.2 °F 20.2 °F 28.4 °F 93% 29.29 in 2.0 mi NW 12.7 mph 21.9 mph N/A Snow Light Snow
2:56 AM 30.9 °F 20.7 °F 28.9 °F 92% 29.32 in 2.0 mi NW 13.8 mph 25.3 mph N/A Snow Light Snow
3:15 AM 30.2 °F 19.3 °F 28.4 °F 93% 29.30 in 4.0 mi NW 15.0 mph 26.5 mph N/A Snow Light Snow
3:27 AM 30.2 °F 19.3 °F 28.4 °F 93% 29.30 in 5.0 mi NW 15.0 mph 27.6 mph N/A Snow Light Snow
3:56 AM 30.9 °F 19.8 °F 28.0 °F 89% 29.33 in 4.0 mi NW 16.1 mph 24.2 mph N/A Snow Light Snow
4:37 AM 30.2 °F 18.5 °F 28.4 °F 93% 29.31 in 2.5 mi NW 17.3 mph 25.3 mph N/A Snow Light Snow
4:45 AM 30.2 °F 17.8 °F 28.4 °F 93% 29.31 in 3.0 mi NW 19.6 mph 25.3 mph N/A Snow Light Snow
4:56 AM 30.9 °F 19.4 °F 27.0 °F 85% 29.35 in 3.0 mi NW 17.3 mph 26.5 mph N/A Snow Light Snow
5:56 AM 30.0 °F 17.9 °F 26.1 °F 85% 29.38 in 6.0 mi NW 18.4 mph 26.5 mph N/A Snow Light Snow
6:43 AM 30.2 °F 18.5 °F 26.6 °F 86% 29.38 in 10.0 mi NW 17.3 mph 27.6 mph N/A   Overcast
6:53 AM 30.2 °F 18.9 °F 26.6 °F 86% 29.39 in 10.0 mi NW 16.1 mph 25.3 mph N/A   Overcast
6:56 AM 30.0 °F 17.9 °F 26.1 °F 85% 29.42 in 10.0 mi NW 18.4 mph 25.3 mph N/A   Overcast
7:56 AM 30.0 °F 18.3 °F 24.1 °F 79% 29.44 in 10.0 mi NW 17.3 mph 24.2 mph N/A   Overcast
8:32 AM 30.2 °F 18.9 °F 24.8 °F 80% 29.42 in 10.0 mi NW 16.1 mph 29.9 mph N/A   Overcast
8:56 AM 30.9 °F 18.7 °F 23.0 °F 72% 29.46 in 10.0 mi NW 19.6 mph 29.9 mph N/A   Scattered Clouds
9:56 AM 30.9 °F 20.7 °F 23.0 °F 72% 29.49 in 8.0 mi NNW 13.8 mph 23.0 mph N/A Snow Light Snow
10:11 AM 30.2 °F 18.9 °F 24.8 °F 80% 29.47 in 2.5 mi NW 16.1 mph 21.9 mph N/A Snow Light Snow
10:20 AM 30.2 °F 17.8 °F 24.8 °F 80% 29.47 in 1.5 mi NW 19.6 mph 29.9 mph N/A Snow Light Snow
10:35 AM 32.0 °F 20.5 °F 21.2 °F 64% 29.48 in 9.0 mi NW 18.4 mph 28.8 mph N/A   Overcast
10:43 AM 30.2 °F 18.1 °F 23.0 °F 75% 29.48 in 1.5 mi NNW 18.4 mph 27.6 mph N/A Snow Light Snow
10:56 AM 30.9 °F 19.8 °F 24.1 °F 76% 29.52 in 1.8 mi NW 16.1 mph 23.0 mph N/A Snow Light Snow
10:58 AM 30.2 °F 18.1 °F 24.8 °F 80% 29.49 in 3.0 mi NW 18.4 mph 24.2 mph 0.00 in Snow Light Snow
11:15 AM 32.0 °F 20.1 °F 21.2 °F 64% 29.50 in 10.0 mi NNW 19.6 mph 33.4 mph 0.00 in   Overcast
11:53 AM 30.2 °F 18.5 °F 24.8 °F 80% 29.52 in 2.0 mi NW 17.3 mph - 0.00 in Snow Light Snow
11:56 AM 32.0 °F 20.5 °F 24.1 °F 73% 29.55 in 4.0 mi NW 18.4 mph 28.8 mph 0.00 in Snow Light Snow
12:56 PM 34.0 °F 26.0 °F 23.0 °F 64% 29.58 in 9.0 mi NNW 10.4 mph 21.9 mph 0.00 in   Overcast
1:36 PM 32.0 °F 22.1 °F 24.8 °F 75% 29.57 in 2.0 mi NW 13.8 mph 32.2 mph 0.00 in Snow Light Snow
1:45 PM 33.8 °F 22.5 °F 24.8 °F 70% 29.57 in 9.0 mi NW 19.6 mph 27.6 mph 0.00 in Snow Light Snow
1:56 PM 34.0 °F 24.2 °F 25.0 °F 70% 29.61 in 8.0 mi WNW 15.0 mph 25.3 mph 0.00 in Snow Light Snow
2:12 PM 30.2 °F 20.2 °F 23.0 °F 75% 29.59 in 2.0 mi NW 12.7 mph 24.2 mph 0.00 in Snow Light Snow
2:17 PM 30.2 °F 18.9 °F 24.8 °F 80% 29.60 in 1.5 mi WNW 16.1 mph 25.3 mph 0.00 in Snow Light Snow
2:25 PM 33.8 °F 24.8 °F 28.4 °F 81% 29.60 in 3.0 mi WNW 12.7 mph 21.9 mph 0.00 in Snow Light Snow
2:39 PM 33.8 °F 24.3 °F 24.8 °F 70% 29.60 in 6.0 mi WNW 13.8 mph 23.0 mph 0.00 in Snow Light Snow
2:56 PM 33.1 °F 21.9 °F 25.0 °F 72% 29.65 in 6.0 mi NW 18.4 mph 24.2 mph 0.00 in Snow Light Snow
3:56 PM 34.0 °F 23.4 °F 25.0 °F 70% 29.68 in 6.0 mi NW 17.3 mph 29.9 mph 0.00 in Snow Light Snow
4:56 PM 35.1 °F 23.3 °F 26.1 °F 70% 29.73 in 8.0 mi NNW 23.0 mph 28.8 mph 0.00 in Snow Light Snow
5:28 PM 33.8 °F 24.8 °F 26.6 °F 75% 29.72 in 4.0 mi NNW 12.7 mph 20.7 mph 0.00 in Snow Light Snow
5:40 PM 35.6 °F 25.9 °F 23.0 °F 60% 29.73 in 10.0 mi North 16.1 mph 27.6 mph 0.00 in   Mostly Cloudy
5:56 PM 33.1 °F 22.2 °F 21.9 °F 64% 29.78 in 10.0 mi NNW 17.3 mph 29.9 mph 0.00 in   Mostly Cloudy
6:56 PM 32.0 °F 20.5 °F 21.0 °F 64% 29.82 in 10.0 mi NW 18.4 mph 23.0 mph 0.00 in   Mostly Cloudy
7:24 PM 30.2 °F 18.1 °F 21.2 °F 69% 29.81 in 2.0 mi NNW 18.4 mph 28.8 mph 0.00 in Snow Light Snow
7:31 PM 30.2 °F 20.8 °F 24.8 °F 80% 29.81 in 1.2 mi NNW 11.5 mph 28.8 mph 0.00 in Snow Light Snow
7:34 PM 30.2 °F 20.8 °F 24.8 °F 80% 29.81 in 2.5 mi NW 11.5 mph - 0.00 in Snow Light Snow
7:41 PM 30.2 °F 21.9 °F 21.2 °F 69% 29.82 in 9.0 mi NNW 9.2 mph 21.9 mph 0.00 in   Overcast
7:56 PM 30.0 °F 21.7 °F 21.0 °F 69% 29.86 in 10.0 mi NNW 9.2 mph - 0.00 in   Mostly Cloudy
8:56 PM 30.0 °F 22.4 °F 19.9 °F 66% 29.91 in 10.0 mi NNW 8.1 mph - 0.00 in   Overcast
9:56 PM 28.9 °F 25.2 °F 19.9 °F 69% 29.94 in 10.0 mi NNW 3.5 mph - N/A   Clear
10:56 PM 28.0 °F 24.2 °F 21.0 °F 75% 29.96 in 10.0 mi WNW 3.5 mph - N/A   Clear
11:56 PM 26.1 °F 21.9 °F 19.9 °F 78% 29.97 in 10.0 mi NNW 3.5 mph - N/A   Clear